Time,TemperatureF,DewpointF,PressureIn,WindDirection,WindDirectionDegrees,WindSpeedMPH,WindSpeedGustMPH,Humidity,HourlyPrecipIn,Conditions,Clouds,dailyrainin,SolarRadiationWatts/m^2,SoftwareType,DateUTC
2013-06-06 00:05:00,58.1,50.6,29.94,NW,315,0.0,0.0,76,0.00,,,0.00,0,Wunderground v.1.15,2013-06-06 07:05:00,
2013-06-06 00:15:00,58.1,50.9,29.93,NW,315,2.0,2.0,77,0.00,,,0.00,0,Wunderground v.1.15,2013-06-06 07:15:00,
2013-06-06 00:20:00,58.2,51.0,29.93,NW,315,0.0,0.0,77,0.00,,,0.00,0,Wunderground v.1.15,2013-06-06 07:20:00,
2013-06-06 00:29:00,58.1,50.9,29.93,NW,315,0.0,0.0,77,0.00,,,0.00,0,Wunderground v.1.15,2013-06-06 07:29:00,
2013-06-06 00:35:00,58.0,50.5,29.93,NW,315,0.0,0.0,76,0.00,,,0.00,0,Wunderground v.1.15,2013-06-06 07:35:00,
2013-06-06 00:44:00,57.8,50.6,29.93,NW,315,0.0,0.0,77,0.00,,,0.00,0,Wunderground v.1.15,2013-06-06 07:44:00,
2013-06-06 00:50:00,57.8,50.6,29.92,NW,316,0.0,0.0,77,0.00,,,0.00,0,Wunderground v.1.15,2013-06-06 07:50:00,
2013-06-06 00:55:00,57.8,50.6,29.92,NW,315,0.0,0.0,77,0.00,,,0.00,0,Wunderground v.1.15,2013-06-06 07:55:00,
2013-06-06 01:00:00,57.8,50.6,29.92,NW,315,0.0,0.0,77,0.00,,,0.00,0,Wunderground v.1.15,2013-06-06 08:00:00,
2013-06-06 01:05:00,57.8,50.6,29.92,NW,315,0.0,0.0,77,0.00,,,0.00,0,Wunderground v.1.15,2013-06-06 08:05:00,
2013-06-06 01:15:00,57.8,50.6,29.92,NW,315,0.0,0.0,77,0.00,,,0.00,0,Wunderground v.1.15,2013-06-06 08:15:00,
2013-06-06 01:24:00,57.9,50.7,29.92,NW,315,0.0,0.0,77,0.00,,,0.00,0,Wunderground v.1.15,2013-06-06 08:24:00,
2013-06-06 01:30:00,57.9,50.7,29.91,NW,316,0.0,0.0,77,0.00,,,0.00,0,Wunderground v.1.15,2013-06-06 08:30:00,
2013-06-06 01:40:00,58.1,50.9,29.91,NW,314,0.0,0.0,77,0.00,,,0.00,0,Wunderground v.1.15,2013-06-06 08:40:00,
2013-06-06 01:45:00,58.1,51.3,29.91,NW,314,1.0,1.0,78,0.00,,,0.00,0,Wunderground v.1.15,2013-06-06 08:45:00,
2013-06-06 01:54:00,58.1,51.3,29.91,NW,314,2.0,2.0,78,0.00,,,0.00,0,Wunderground v.1.15,2013-06-06 08:54:00,
2013-06-06 02:00:00,58.2,51.4,29.91,NW,314,0.0,0.0,78,0.00,,,0.00,0,Wunderground v.1.15,2013-06-06 09:00:00,
2013-06-06 02:05:00,58.3,51.5,29.91,NW,314,0.0,0.0,78,0.00,,,0.00,0,Wunderground v.1.15,2013-06-06 09:05:00,
2013-06-06 02:15:00,58.4,51.6,29.91,NW,314,0.0,0.0,78,0.00,,,0.00,0,Wunderground v.1.15,2013-06-06 09:15:00,
2013-06-06 02:24:00,58.5,51.7,29.91,NW,314,0.0,0.0,78,0.00,,,0.00,0,Wunderground v.1.15,2013-06-06 09:24:00,
2013-06-06 02:29:00,58.6,51.8,29.92,NW,314,0.0,0.0,78,0.00,,,0.00,0,Wunderground v.1.15,2013-06-06 09:29:00,
2013-06-06 02:35:00,58.6,51.8,29.92,NW,314,1.0,1.0,78,0.00,,,0.00,0,Wunderground v.1.15,2013-06-06 09:35:00,
2013-06-06 02:44:00,58.7,51.5,29.91,NW,316,1.0,2.0,77,0.00,,,0.00,0,Wunderground v.1.15,2013-06-06 09:44:00,
2013-06-06 02:50:00,58.7,51.5,29.92,NW,316,0.0,0.0,77,0.00,,,0.00,0,Wunderground v.1.15,2013-06-06 09:50:00,
2013-06-06 02:55:00,58.7,51.5,29.92,NW,316,0.0,0.0,77,0.00,,,0.00,0,Wunderground v.1.15,2013-06-06 09:55:00,
2013-06-06 03:05:00,58.8,51.6,29.91,NW,316,0.0,0.0,77,0.00,,,0.00,0,Wunderground v.1.15,2013-06-06 10:05:00,
2013-06-06 03:15:00,58.9,51.7,29.91,NW,316,0.0,0.0,77,0.00,,,0.00,0,Wunderground v.1.15,2013-06-06 10:15:00,
2013-06-06 03:20:00,59.0,51.8,29.91,NW,316,0.0,0.0,77,0.00,,,0.00,0,Wunderground v.1.15,2013-06-06 10:20:00,
2013-06-06 03:30:00,59.0,51.8,29.91,NW,316,1.0,1.0,77,0.00,,,0.00,0,Wunderground v.1.15,2013-06-06 10:30:00,
2013-06-06 03:39:00,59.0,51.8,29.91,NW,316,0.0,0.0,77,0.00,,,0.00,0,Wunderground v.1.15,2013-06-06 10:39:00,
2013-06-06 03:45:00,59.0,51.8,29.91,NW,316,0.0,0.0,77,0.00,,,0.00,0,Wunderground v.1.15,2013-06-06 10:45:00,
2013-06-06 03:54:00,59.0,51.8,29.91,NW,316,0.0,0.0,77,0.00,,,0.00,0,Wunderground v.1.15,2013-06-06 10:54:00,
2013-06-06 03:59:00,59.0,51.8,29.91,NW,316,1.0,1.0,77,0.00,,,0.00,0,Wunderground v.1.15,2013-06-06 10:59:00,
2013-06-06 04:05:00,59.0,51.8,29.91,NW,316,1.0,1.0,77,0.00,,,0.00,0,Wunderground v.1.15,2013-06-06 11:05:00,
2013-06-06 04:15:00,59.0,51.8,29.91,NW,316,0.0,0.0,77,0.00,,,0.00,0,Wunderground v.1.15,2013-06-06 11:15:00,
2013-06-06 04:24:00,59.1,51.9,29.92,NW,316,0.0,0.0,77,0.00,,,0.00,0,Wunderground v.1.15,2013-06-06 11:24:00,
2013-06-06 04:29:00,59.1,51.9,29.92,NW,316,0.0,0.0,77,0.00,,,0.00,0,Wunderground v.1.15,2013-06-06 11:29:00,
2013-06-06 04:35:00,59.1,51.9,29.92,NW,316,0.0,0.0,77,0.00,,,0.00,0,Wunderground v.1.15,2013-06-06 11:35:00,
2013-06-06 04:40:00,59.2,52.0,29.92,NW,316,0.0,0.0,77,0.00,,,0.00,0,Wunderground v.1.15,2013-06-06 11:40:00,
2013-06-06 04:49:00,59.3,52.1,29.92,NW,316,0.0,0.0,77,0.00,,,0.00,0,Wunderground v.1.15,2013-06-06 11:49:00,
2013-06-06 04:55:00,59.3,52.1,29.92,NW,316,0.0,0.0,77,0.00,,,0.00,0,Wunderground v.1.15,2013-06-06 11:55:00,
2013-06-06 05:00:00,59.4,52.2,29.92,NW,316,0.0,0.0,77,0.00,,,0.00,0,Wunderground v.1.15,2013-06-06 12:00:00,
2013-06-06 05:05:00,59.4,52.2,29.92,NW,316,0.0,0.0,77,0.00,,,0.00,0,Wunderground v.1.15,2013-06-06 12:05:00,
2013-06-06 05:14:00,59.5,52.3,29.92,NW,316,0.0,0.0,77,0.00,,,0.00,0,Wunderground v.1.15,2013-06-06 12:14:00,
2013-06-06 05:19:00,59.5,52.3,29.92,NW,316,0.0,0.0,77,0.00,,,0.00,0,Wunderground v.1.15,2013-06-06 12:19:00,
2013-06-06 05:25:00,59.5,52.3,29.92,NW,316,0.0,0.0,77,0.00,,,0.00,0,Wunderground v.1.15,2013-06-06 12:25:00,
2013-06-06 05:30:00,59.5,52.3,29.92,NW,316,0.0,0.0,77,0.00,,,0.00,0,Wunderground v.1.15,2013-06-06 12:30:00,
2013-06-06 05:40:00,59.5,52.3,29.92,NW,316,0.0,0.0,77,0.00,,,0.00,0,Wunderground v.1.15,2013-06-06 12:40:00,
2013-06-06 05:45:00,59.6,52.4,29.92,NW,316,0.0,0.0,77,0.00,,,0.00,0,Wunderground v.1.15,2013-06-06 12:45:00,
2013-06-06 05:50:00,59.5,52.3,29.92,NW,316,0.0,0.0,77,0.00,,,0.00,0,Wunderground v.1.15,2013-06-06 12:50:00,
2013-06-06 05:59:00,59.5,52.3,29.92,NW,316,0.0,0.0,77,0.00,,,0.00,0,Wunderground v.1.15,2013-06-06 12:59:00,
2013-06-06 06:05:00,59.5,52.3,29.92,NW,316,0.0,0.0,77,0.00,,,0.00,0,Wunderground v.1.15,2013-06-06 13:05:00,
2013-06-06 06:14:00,59.5,52.3,29.92,NW,316,0.0,0.0,77,0.00,,,0.00,0,Wunderground v.1.15,2013-06-06 13:14:00,
2013-06-06 06:20:00,59.5,51.9,29.92,NW,316,0.0,0.0,76,0.00,,,0.00,0,Wunderground v.1.15,2013-06-06 13:20:00,
2013-06-06 06:25:00,59.4,52.2,29.92,NW,316,2.0,2.0,77,0.00,,,0.00,0,Wunderground v.1.15,2013-06-06 13:25:00,
2013-06-06 06:35:00,59.4,51.8,29.92,NW,316,0.0,0.0,76,0.00,,,0.00,0,Wunderground v.1.15,2013-06-06 13:35:00,
2013-06-06 06:44:00,59.5,52.3,29.92,NW,316,0.0,0.0,77,0.00,,,0.00,0,Wunderground v.1.15,2013-06-06 13:44:00,
2013-06-06 06:50:00,59.5,52.3,29.92,NW,316,0.0,0.0,77,0.00,,,0.00,0,Wunderground v.1.15,2013-06-06 13:50:00,
2013-06-06 06:59:00,59.4,52.2,29.93,NW,315,1.0,1.0,77,0.00,,,0.00,0,Wunderground v.1.15,2013-06-06 13:59:00,
2013-06-06 07:05:00,59.4,52.2,29.93,NW,315,0.0,1.0,77,0.00,,,0.00,0,Wunderground v.1.15,2013-06-06 14:05:00,
2013-06-06 07:14:00,59.3,51.7,29.93,NW,315,0.0,0.0,76,0.00,,,0.00,0,Wunderground v.1.15,2013-06-06 14:14:00,
2013-06-06 07:19:00,59.4,52.2,29.93,NW,315,0.0,0.0,77,0.00,,,0.00,0,Wunderground v.1.15,2013-06-06 14:19:00,
2013-06-06 07:25:00,59.5,52.3,29.93,NW,315,0.0,0.0,77,0.00,,,0.00,0,Wunderground v.1.15,2013-06-06 14:25:00,
2013-06-06 07:34:00,59.5,52.3,29.93,NW,315,0.0,0.0,77,0.00,,,0.00,0,Wunderground v.1.15,2013-06-06 14:34:00,
2013-06-06 07:40:00,59.6,52.4,29.94,NW,315,0.0,0.0,77,0.00,,,0.00,0,Wunderground v.1.15,2013-06-06 14:40:00,
2013-06-06 07:45:00,59.6,52.0,29.94,NW,315,0.0,0.0,76,0.00,,,0.00,0,Wunderground v.1.15,2013-06-06 14:45:00,
2013-06-06 07:54:00,59.8,52.2,29.94,NW,315,0.0,2.0,76,0.00,,,0.00,0,Wunderground v.1.15,2013-06-06 14:54:00,
2013-06-06 08:00:00,59.8,52.2,29.94,NW,315,0.0,0.0,76,0.00,,,0.00,0,Wunderground v.1.15,2013-06-06 15:00:00,
2013-06-06 08:05:00,60.0,52.4,29.95,NW,315,0.0,0.0,76,0.00,,,0.00,0,Wunderground v.1.15,2013-06-06 15:05:00,
2013-06-06 08:14:00,60.1,52.5,29.95,NW,315,0.0,0.0,76,0.00,,,0.00,0,Wunderground v.1.15,2013-06-06 15:14:00,
2013-06-06 08:19:00,60.2,52.6,29.95,NW,315,0.0,0.0,76,0.00,,,0.00,0,Wunderground v.1.15,2013-06-06 15:19:00,
2013-06-06 08:25:00,60.1,52.1,29.96,NW,315,3.0,3.0,75,0.00,,,0.00,0,Wunderground v.1.15,2013-06-06 15:25:00,
2013-06-06 08:30:00,60.3,52.3,29.96,NW,315,0.0,0.0,75,0.00,,,0.00,0,Wunderground v.1.15,2013-06-06 15:30:00,
2013-06-06 08:40:00,60.6,52.6,29.96,NW,315,0.0,0.0,75,0.00,,,0.00,0,Wunderground v.1.15,2013-06-06 15:40:00,
2013-06-06 08:45:00,60.8,52.5,29.96,NW,315,0.0,0.0,74,0.00,,,0.00,0,Wunderground v.1.15,2013-06-06 15:45:00,
2013-06-06 08:50:00,60.9,52.9,29.96,NW,315,0.0,0.0,75,0.00,,,0.00,0,Wunderground v.1.15,2013-06-06 15:50:00,
2013-06-06 08:59:00,61.2,52.8,29.96,NW,315,0.0,0.0,74,0.00,,,0.00,0,Wunderground v.1.15,2013-06-06 15:59:00,
2013-06-06 09:05:00,61.2,52.8,29.96,NW,315,0.0,0.0,74,0.00,,,0.00,0,Wunderground v.1.15,2013-06-06 16:05:00,
2013-06-06 09:14:00,61.6,53.2,29.96,NW,315,0.0,1.0,74,0.00,,,0.00,0,Wunderground v.1.15,2013-06-06 16:14:00,
2013-06-06 09:19:00,61.9,53.5,29.96,NW,315,0.0,0.0,74,0.00,,,0.00,0,Wunderground v.1.15,2013-06-06 16:19:00,
2013-06-06 09:25:00,62.1,53.3,29.96,NW,315,1.0,1.0,73,0.00,,,0.00,0,Wunderground v.1.15,2013-06-06 16:25:00,
2013-06-06 09:30:00,62.1,53.0,29.96,NW,315,0.0,0.0,72,0.00,,,0.00,0,Wunderground v.1.15,2013-06-06 16:30:00,
2013-06-06 09:40:00,62.5,53.7,29.96,NW,314,4.0,4.0,73,0.00,,,0.00,0,Wunderground v.1.15,2013-06-06 16:40:00,
2013-06-06 09:49:00,62.2,53.4,29.96,NW,317,0.0,0.0,73,0.00,,,0.00,0,Wunderground v.1.15,2013-06-06 16:49:00,
2013-06-06 09:55:00,62.1,53.3,29.97,NW,316,0.0,0.0,73,0.00,,,0.00,0,Wunderground v.1.15,2013-06-06 16:55:00,
2013-06-06 10:00:00,62.1,53.3,29.96,NW,316,0.0,0.0,73,0.00,,,0.00,0,Wunderground v.1.15,2013-06-06 17:00:00,
2013-06-06 10:05:00,62.2,53.4,29.96,NW,316,1.0,1.0,73,0.00,,,0.00,0,Wunderground v.1.15,2013-06-06 17:05:00,
2013-06-06 10:14:00,62.1,53.3,29.97,NW,314,0.0,1.0,73,0.00,,,0.00,0,Wunderground v.1.15,2013-06-06 17:14:00,
2013-06-06 10:19:00,62.2,53.4,29.97,NW,314,2.0,2.0,73,0.00,,,0.00,0,Wunderground v.1.15,2013-06-06 17:19:00,
2013-06-06 10:25:00,62.4,53.6,29.97,NW,314,0.0,2.0,73,0.00,,,0.00,0,Wunderground v.1.15,2013-06-06 17:25:00,
2013-06-06 10:30:00,62.2,53.1,29.97,NW,312,0.0,0.0,72,0.00,,,0.00,0,Wunderground v.1.15,2013-06-06 17:30:00,
2013-06-06 10:40:00,62.4,53.6,29.96,NW,312,0.0,0.0,73,0.00,,,0.00,0,Wunderground v.1.15,2013-06-06 17:40:00,
2013-06-06 10:49:00,62.7,53.5,29.97,NW,311,0.0,0.0,72,0.00,,,0.00,0,Wunderground v.1.15,2013-06-06 17:49:00,
2013-06-06 10:54:00,62.9,53.7,29.97,NW,311,1.0,1.0,72,0.00,,,0.00,0,Wunderground v.1.15,2013-06-06 17:54:00,
2013-06-06 10:59:00,62.8,53.6,29.97,SW,236,1.0,1.0,72,0.00,,,0.00,0,Wunderground v.1.15,2013-06-06 17:59:00,
2013-06-06 11:05:00,62.7,53.5,29.96,SW,236,0.0,1.0,72,0.00,,,0.00,0,Wunderground v.1.15,2013-06-06 18:05:00,
2013-06-06 11:15:00,62.7,53.2,29.97,SW,226,4.0,4.0,71,0.00,,,0.00,0,Wunderground v.1.15,2013-06-06 18:15:00,
2013-06-06 11:25:00,62.5,53.3,29.97,SW,231,1.0,3.0,72,0.00,,,0.00,0,Wunderground v.1.15,2013-06-06 18:25:00,
2013-06-06 11:30:00,62.7,53.5,29.96,SSW,209,0.0,0.0,72,0.00,,,0.00,0,Wunderground v.1.15,2013-06-06 18:30:00,
2013-06-06 11:40:00,64.0,54.4,29.96,West,265,0.0,0.0,71,0.00,,,0.00,0,Wunderground v.1.15,2013-06-06 18:40:00,
2013-06-06 11:50:00,64.7,54.3,29.96,SW,230,4.0,4.0,69,0.00,,,0.00,0,Wunderground v.1.15,2013-06-06 18:50:00,
2013-06-06 11:55:00,65.0,54.2,29.96,SW,231,2.0,4.0,68,0.00,,,0.00,0,Wunderground v.1.15,2013-06-06 18:55:00,
2013-06-06 12:05:00,64.8,54.0,29.96,WSW,242,3.0,3.0,68,0.00,,,0.00,0,Wunderground v.1.15,2013-06-06 19:05:00,
2013-06-06 12:14:00,65.4,54.2,29.95,SSW,202,1.0,6.0,67,0.00,,,0.00,0,Wunderground v.1.15,2013-06-06 19:14:00,
2013-06-06 12:19:00,65.5,54.7,29.95,SW,225,2.0,2.0,68,0.00,,,0.00,0,Wunderground v.1.15,2013-06-06 19:19:00,
2013-06-06 12:24:00,65.8,54.5,29.96,WSW,240,5.0,5.0,67,0.00,,,0.00,0,Wunderground v.1.15,2013-06-06 19:24:00,
2013-06-06 12:30:00,65.6,54.3,29.95,SW,227,5.0,5.0,67,0.00,,,0.00,0,Wunderground v.1.15,2013-06-06 19:30:00,
2013-06-06 12:34:00,65.7,54.8,29.95,SW,227,5.0,5.0,68,0.00,,,0.00,0,Wunderground v.1.15,2013-06-06 19:34:00,
2013-06-06 12:40:00,65.8,54.5,29.95,SW,215,2.0,2.0,67,0.00,,,0.00,0,Wunderground v.1.15,2013-06-06 19:40:00,
2013-06-06 12:45:00,66.0,54.3,29.95,SSW,212,3.0,3.0,66,0.00,,,0.00,0,Wunderground v.1.15,2013-06-06 19:45:00,
2013-06-06 12:54:00,66.0,54.3,29.95,SW,226,9.0,9.0,66,0.00,,,0.00,0,Wunderground v.1.15,2013-06-06 19:54:00,
2013-06-06 12:59:00,65.8,54.5,29.95,SW,221,2.0,2.0,67,0.00,,,0.00,0,Wunderground v.1.15,2013-06-06 19:59:00,
2013-06-06 13:05:00,66.0,54.3,29.94,SW,229,5.0,5.0,66,0.00,,,0.00,0,Wunderground v.1.15,2013-06-06 20:05:00,
2013-06-06 13:15:00,66.3,54.6,29.94,SW,234,6.0,6.0,66,0.00,,,0.00,0,Wunderground v.1.15,2013-06-06 20:15:00,
2013-06-06 13:24:00,66.4,54.7,29.94,SW,225,9.0,9.0,66,0.00,,,0.00,0,Wunderground v.1.15,2013-06-06 20:24:00,
2013-06-06 13:30:00,66.7,55.0,29.94,SSW,211,6.0,6.0,66,0.00,,,0.00,0,Wunderground v.1.15,2013-06-06 20:30:00,
2013-06-06 13:39:00,66.4,55.1,29.93,SSW,203,5.0,5.0,67,0.00,,,0.00,0,Wunderground v.1.15,2013-06-06 20:39:00,
2013-06-06 13:45:00,66.4,55.5,29.93,South,191,2.0,5.0,68,0.00,,,0.00,0,Wunderground v.1.15,2013-06-06 20:45:00,
2013-06-06 13:50:00,66.7,55.8,29.93,SW,236,6.0,6.0,68,0.00,,,0.00,0,Wunderground v.1.15,2013-06-06 20:50:00,
2013-06-06 13:59:00,67.1,55.8,29.93,WSW,244,1.0,1.0,67,0.00,,,0.00,0,Wunderground v.1.15,2013-06-06 20:59:00,
2013-06-06 14:05:00,67.3,55.1,29.93,SW,235,9.0,9.0,65,0.00,,,0.00,0,Wunderground v.1.15,2013-06-06 21:05:00,
2013-06-06 14:15:00,66.7,54.6,29.92,SW,234,4.0,9.0,65,0.00,,,0.00,0,Wunderground v.1.15,2013-06-06 21:15:00,
2013-06-06 14:20:00,67.4,55.6,29.92,SW,220,5.0,5.0,66,0.00,,,0.00,0,Wunderground v.1.15,2013-06-06 21:20:00,
2013-06-06 14:25:00,68.2,55.6,29.92,SSW,197,3.0,5.0,64,0.00,,,0.00,0,Wunderground v.1.15,2013-06-06 21:25:00,
2013-06-06 14:35:00,69.6,55.6,29.92,West,271,0.0,1.0,61,0.00,,,0.00,0,Wunderground v.1.15,2013-06-06 21:35:00,
2013-06-06 14:44:00,70.7,55.7,29.92,SW,219,5.0,5.0,59,0.00,,,0.00,0,Wunderground v.1.15,2013-06-06 21:44:00,
2013-06-06 14:50:00,69.2,55.2,29.91,South,175,5.0,5.0,61,0.00,,,0.00,0,Wunderground v.1.15,2013-06-06 21:50:00,
2013-06-06 14:55:00,69.2,55.2,29.91,SSW,197,3.0,5.0,61,0.00,,,0.00,0,Wunderground v.1.15,2013-06-06 21:55:00,
2013-06-06 15:00:00,69.4,55.4,29.91,SW,217,1.0,1.0,61,0.00,,,0.00,0,Wunderground v.1.15,2013-06-06 22:00:00,
2013-06-06 15:05:00,69.7,55.2,29.91,SW,224,4.0,4.0,60,0.00,,,0.00,0,Wunderground v.1.15,2013-06-06 22:05:00,
2013-06-06 15:14:00,70.3,55.8,29.91,SW,218,5.0,5.0,60,0.00,,,0.00,0,Wunderground v.1.15,2013-06-06 22:14:00,
2013-06-06 15:19:00,70.5,55.9,29.91,SSW,194,3.0,3.0,60,0.00,,,0.00,0,Wunderground v.1.15,2013-06-06 22:19:00,
2013-06-06 15:24:00,70.6,55.6,29.90,SW,228,5.0,5.0,59,0.00,,,0.00,0,Wunderground v.1.15,2013-06-06 22:24:00,
2013-06-06 15:30:00,70.3,55.8,29.90,SW,227,2.0,2.0,60,0.00,,,0.00,0,Wunderground v.1.15,2013-06-06 22:30:00,
2013-06-06 15:39:00,68.5,55.0,29.90,SSW,204,3.0,3.0,62,0.00,,,0.00,0,Wunderground v.1.15,2013-06-06 22:39:00,
2013-06-06 15:45:00,68.7,55.6,29.90,West,267,5.0,5.0,63,0.00,,,0.00,0,Wunderground v.1.15,2013-06-06 22:45:00,
2013-06-06 15:50:00,69.0,55.4,29.90,WNW,285,2.0,2.0,62,0.00,,,0.00,0,Wunderground v.1.15,2013-06-06 22:50:00,
2013-06-06 15:55:00,68.9,55.3,29.90,South,179,0.0,2.0,62,0.00,,,0.00,0,Wunderground v.1.15,2013-06-06 22:55:00,
2013-06-06 16:05:00,68.7,55.2,29.89,SW,215,2.0,6.0,62,0.00,,,0.00,0,Wunderground v.1.15,2013-06-06 23:05:00,
2013-06-06 16:15:00,68.6,55.1,29.89,SW,227,1.0,1.0,62,0.00,,,0.00,0,Wunderground v.1.15,2013-06-06 23:15:00,
2013-06-06 16:24:00,68.1,55.0,29.89,SSW,198,4.0,4.0,63,0.00,,,0.00,0,Wunderground v.1.15,2013-06-06 23:24:00,
2013-06-06 16:29:00,68.7,55.2,29.88,SSW,209,2.0,2.0,62,0.00,,,0.00,0,Wunderground v.1.15,2013-06-06 23:29:00,
2013-06-06 16:39:00,68.6,55.1,29.88,WSW,255,0.0,0.0,62,0.00,,,0.00,0,Wunderground v.1.15,2013-06-06 23:39:00,
2013-06-06 16:45:00,68.7,54.7,29.89,SW,226,3.0,3.0,61,0.00,,,0.00,0,Wunderground v.1.15,2013-06-06 23:45:00,
2013-06-06 16:50:00,68.4,54.9,29.89,SW,230,8.0,8.0,62,0.00,,,0.00,0,Wunderground v.1.15,2013-06-06 23:50:00,
2013-06-06 16:59:00,67.4,54.4,29.89,WSW,247,7.0,7.0,63,0.00,,,0.00,0,Wunderground v.1.15,2013-06-06 23:59:00,
2013-06-06 17:05:00,67.6,54.6,29.88,SW,217,0.0,7.0,63,0.00,,,0.00,0,Wunderground v.1.15,2013-06-07 00:05:00,
2013-06-06 17:14:00,67.5,54.0,29.88,SSW,199,0.0,8.0,62,0.00,,,0.00,0,Wunderground v.1.15,2013-06-07 00:14:00,
2013-06-06 17:20:00,68.3,55.2,29.88,SW,225,0.0,0.0,63,0.00,,,0.00,0,Wunderground v.1.15,2013-06-07 00:20:00,
2013-06-06 17:29:00,69.4,55.4,29.89,WSW,246,2.0,2.0,61,0.00,,,0.00,0,Wunderground v.1.15,2013-06-07 00:29:00,
2013-06-06 17:39:00,69.8,55.3,29.88,WNW,300,2.0,2.0,60,0.00,,,0.00,0,Wunderground v.1.15,2013-06-07 00:39:00,
2013-06-06 17:44:00,69.7,54.7,29.88,SW,228,1.0,2.0,59,0.00,,,0.00,0,Wunderground v.1.15,2013-06-07 00:44:00,
2013-06-06 17:50:00,69.4,54.9,29.88,SW,218,0.0,0.0,60,0.00,,,0.00,0,Wunderground v.1.15,2013-06-07 00:50:00,
2013-06-06 17:59:00,67.8,54.3,29.88,WSW,239,0.0,0.0,62,0.00,,,0.00,0,Wunderground v.1.15,2013-06-07 00:59:00,
2013-06-06 18:05:00,67.1,54.1,29.89,SSW,208,2.0,2.0,63,0.00,,,0.00,0,Wunderground v.1.15,2013-06-07 01:05:00,
2013-06-06 18:15:00,66.0,53.9,29.89,WSW,243,0.0,5.0,65,0.00,,,0.00,0,Wunderground v.1.15,2013-06-07 01:15:00,
2013-06-06 18:24:00,65.3,53.6,29.89,SW,223,1.0,1.0,66,0.00,,,0.00,0,Wunderground v.1.15,2013-06-07 01:24:00,
2013-06-06 18:29:00,64.8,53.6,29.89,NW,326,3.0,3.0,67,0.00,,,0.00,0,Wunderground v.1.15,2013-06-07 01:29:00,
2013-06-06 18:39:00,64.3,53.5,29.89,NW,323,3.0,3.0,68,0.00,,,0.00,0,Wunderground v.1.15,2013-06-07 01:39:00,
2013-06-06 18:44:00,64.3,53.5,29.90,West,265,2.0,3.0,68,0.00,,,0.00,0,Wunderground v.1.15,2013-06-07 01:44:00,
2013-06-06 18:50:00,64.1,53.3,29.89,West,264,1.0,1.0,68,0.00,,,0.00,0,Wunderground v.1.15,2013-06-07 01:50:00,
2013-06-06 18:55:00,64.1,53.3,29.90,NW,315,3.0,3.0,68,0.00,,,0.00,0,Wunderground v.1.15,2013-06-07 01:55:00,
2013-06-06 19:05:00,63.7,52.9,29.90,SSW,207,1.0,2.0,68,0.00,,,0.00,0,Wunderground v.1.15,2013-06-07 02:05:00,
2013-06-06 19:14:00,63.4,53.0,29.90,WNW,294,1.0,1.0,69,0.00,,,0.00,0,Wunderground v.1.15,2013-06-07 02:14:00,
2013-06-06 19:20:00,63.3,53.0,29.90,WNW,303,4.0,4.0,69,0.00,,,0.00,0,Wunderground v.1.15,2013-06-07 02:20:00,
2013-06-06 19:25:00,62.9,52.6,29.90,SSW,211,0.0,4.0,69,0.00,,,0.00,0,Wunderground v.1.15,2013-06-07 02:25:00,
2013-06-06 19:35:00,62.3,52.4,29.90,West,262,0.0,0.0,70,0.00,,,0.00,0,Wunderground v.1.15,2013-06-07 02:35:00,
2013-06-06 19:40:00,62.1,50.6,29.90,SW,228,1.0,1.0,66,0.00,,,0.00,0,Wunderground v.1.15,2013-06-07 02:40:00,
2013-06-06 19:49:00,61.6,52.5,29.89,WSW,243,0.0,0.0,72,0.00,,,0.00,0,Wunderground v.1.15,2013-06-07 02:49:00,
2013-06-06 19:55:00,61.6,52.5,29.90,WNW,296,0.0,0.0,72,0.00,,,0.00,0,Wunderground v.1.15,2013-06-07 02:55:00,
2013-06-06 20:00:00,61.7,52.6,29.89,WNW,297,2.0,2.0,72,0.00,,,0.00,0,Wunderground v.1.15,2013-06-07 03:00:00,
2013-06-06 20:05:00,61.6,52.5,29.90,WNW,298,1.0,2.0,72,0.00,,,0.00,0,Wunderground v.1.15,2013-06-07 03:05:00,
2013-06-06 20:14:00,61.3,52.2,29.90,WSW,237,1.0,1.0,72,0.00,,,0.00,0,Wunderground v.1.15,2013-06-07 03:14:00,
2013-06-06 20:20:00,61.1,52.4,29.90,WSW,237,2.0,2.0,73,0.00,,,0.00,0,Wunderground v.1.15,2013-06-07 03:20:00,
2013-06-06 20:25:00,61.0,52.3,29.90,WNW,292,0.0,2.0,73,0.00,,,0.00,0,Wunderground v.1.15,2013-06-07 03:25:00,
2013-06-06 20:35:00,60.8,52.1,29.90,West,275,1.0,1.0,73,0.00,,,0.00,0,Wunderground v.1.15,2013-06-07 03:35:00,
2013-06-06 20:44:00,60.6,52.3,29.90,West,275,2.0,2.0,74,0.00,,,0.00,0,Wunderground v.1.15,2013-06-07 03:44:00,
2013-06-06 20:50:00,60.5,52.2,29.91,West,275,0.0,0.0,74,0.00,,,0.00,0,Wunderground v.1.15,2013-06-07 03:50:00,
2013-06-06 20:55:00,60.4,52.1,29.91,West,275,0.0,0.0,74,0.00,,,0.00,0,Wunderground v.1.15,2013-06-07 03:55:00,
2013-06-06 21:05:00,60.3,52.0,29.91,WSW,258,0.0,0.0,74,0.00,,,0.00,0,Wunderground v.1.15,2013-06-07 04:05:00,
2013-06-06 21:09:00,60.3,52.3,29.91,West,259,0.0,0.0,75,0.00,,,0.00,0,Wunderground v.1.15,2013-06-07 04:09:00,
2013-06-06 21:14:00,60.3,52.0,29.91,West,264,0.0,0.0,74,0.00,,,0.00,0,Wunderground v.1.15,2013-06-07 04:14:00,
2013-06-06 21:20:00,60.3,52.0,29.92,West,263,0.0,0.0,74,0.00,,,0.00,0,Wunderground v.1.15,2013-06-07 04:20:00,
2013-06-06 21:25:00,60.3,52.3,29.92,West,264,0.0,0.0,75,0.00,,,0.00,0,Wunderground v.1.15,2013-06-07 04:25:00,
2013-06-06 21:35:00,60.4,52.4,29.92,West,263,0.0,0.0,75,0.00,,,0.00,0,Wunderground v.1.15,2013-06-07 04:35:00,
2013-06-06 21:44:00,60.4,52.4,29.92,West,264,0.0,2.0,75,0.00,,,0.00,0,Wunderground v.1.15,2013-06-07 04:44:00,
2013-06-06 21:49:00,60.5,52.2,29.92,West,263,0.0,0.0,74,0.00,,,0.00,0,Wunderground v.1.15,2013-06-07 04:49:00,
2013-06-06 21:54:00,60.5,52.5,29.92,West,264,1.0,1.0,75,0.00,,,0.00,0,Wunderground v.1.15,2013-06-07 04:54:00,
2013-06-06 22:00:00,60.4,52.4,29.93,West,260,1.0,1.0,75,0.00,,,0.00,0,Wunderground v.1.15,2013-06-07 05:00:00,
2013-06-06 22:05:00,60.5,52.5,29.92,West,260,0.0,1.0,75,0.00,,,0.00,0,Wunderground v.1.15,2013-06-07 05:05:00,
2013-06-06 22:14:00,60.7,52.7,29.92,West,260,0.0,1.0,75,0.00,,,0.00,0,Wunderground v.1.15,2013-06-07 05:14:00,
2013-06-06 22:19:00,60.7,52.7,29.92,West,260,0.0,0.0,75,0.00,,,0.00,0,Wunderground v.1.15,2013-06-07 05:19:00,
2013-06-06 22:25:00,60.8,52.8,29.92,West,260,0.0,0.0,75,0.00,,,0.00,0,Wunderground v.1.15,2013-06-07 05:25:00,
2013-06-06 22:30:00,60.9,52.6,29.92,West,260,0.0,0.0,74,0.00,,,0.00,0,Wunderground v.1.15,2013-06-07 05:30:00,
2013-06-06 22:40:00,61.1,52.7,29.93,West,260,0.0,0.0,74,0.00,,,0.00,0,Wunderground v.1.15,2013-06-07 05:40:00,
2013-06-06 22:45:00,61.1,52.7,29.93,West,260,1.0,1.0,74,0.00,,,0.00,0,Wunderground v.1.15,2013-06-07 05:45:00,
2013-06-06 22:54:00,61.1,52.7,29.93,West,260,0.0,0.0,74,0.00,,,0.00,0,Wunderground v.1.15,2013-06-07 05:54:00,
2013-06-06 22:59:00,61.1,52.7,29.93,West,260,0.0,0.0,74,0.00,,,0.00,0,Wunderground v.1.15,2013-06-07 05:59:00,
2013-06-06 23:05:00,61.1,52.7,29.92,West,260,0.0,0.0,74,0.00,,,0.00,0,Wunderground v.1.15,2013-06-07 06:05:00,
2013-06-06 23:10:00,61.1,52.7,29.92,West,260,0.0,0.0,74,0.00,,,0.00,0,Wunderground v.1.15,2013-06-07 06:10:00,
2013-06-06 23:15:00,61.1,52.7,29.92,West,260,0.0,0.0,74,0.00,,,0.00,0,Wunderground v.1.15,2013-06-07 06:15:00,
2013-06-06 23:24:00,61.0,52.7,29.92,West,260,0.0,0.0,74,0.00,,,0.00,0,Wunderground v.1.15,2013-06-07 06:24:00,
2013-06-06 23:29:00,61.0,52.7,29.92,West,260,0.0,0.0,74,0.00,,,0.00,0,Wunderground v.1.15,2013-06-07 06:29:00,
2013-06-06 23:39:00,61.0,52.7,29.92,West,260,0.0,0.0,74,0.00,,,0.00,0,Wunderground v.1.15,2013-06-07 06:39:00,
2013-06-06 23:44:00,61.0,52.7,29.92,West,260,0.0,0.0,74,0.00,,,0.00,0,Wunderground v.1.15,2013-06-07 06:44:00,
2013-06-06 23:50:00,60.9,52.2,29.92,West,260,0.0,0.0,73,0.00,,,0.00,0,Wunderground v.1.15,2013-06-07 06:50:00,
2013-06-06 23:55:00,60.8,52.5,29.92,West,260,2.0,2.0,74,0.00,,,0.00,0,Wunderground v.1.15,2013-06-07 06:55:00,